{"data":{"norad_id":69943,"intl_designator":"2026-157A","name":"STARLINK-37886","alt_names":[],"object_type":"PAYLOAD","status":"ACTIVE","operator":null,"country":"US","launch_date":"2026-07-09","launch_site_code":"AFETR","launch_vehicle":null,"mission":null,"orbit_class":"UNKNOWN","rcs_meters":null,"size_class":null,"mass_kg":null,"dimensions":null,"purposes":["comms"],"wikipedia_slug":null,"has_3d_model":false,"image_url":null,"decayed_at":null,"tle_current":{"epoch":"2026-09-20T05:09:28.477152Z","epoch_age_seconds":42469,"freshness":"FRESH","line1":"1 69943U 26157A   26263.21491293  .00014971  00000+0  45315-3 0  9994","line2":"2 69943  53.1543 334.7241 0002579  98.2790 261.8505 15.34411798 11334","mean_motion":15.34411798,"eccentricity":0.0002579,"inclination_deg":53.1543,"raan_deg":334.7241,"arg_perigee_deg":98.279,"mean_anomaly_deg":261.8505,"bstar":0.00045315,"rev_number":1133,"period_min":93.847036491569,"perigee_km":460.90393063503,"apogee_km":464.43241794392,"semimajor_km":6840.8051742895,"source":"CELESTRAK","updated_at":"2026-09-20T09:00:44.298702Z"}}}